User: anonymous   Login
Location: Newark
(15.4608°S, 41.1635°W)
Time: 04:23:35
(UTC+00:00)
Language:

S-56A Canister/Altair - Orbit

View from above orbital plane
View from above orbital plane
View from above satellite
View from above satellite

Ground track
Ground track

The orbit data is extracted from the following two-line orbital elements,

1 00082U 61004B   21215.16829185 -.00000092  00000-0 -48221-4 0  9996
2 00082  38.8650 113.8555 1176670 270.6156  76.0134 12.26028644858349
Epoch (UTC): 03 August 2021 04:02:20
Eccentricity: 0.1176670
inclination: 38.8650°
perigee height: 631 km
apogee height: 2501 km
right ascension of ascending node: 113.8555°
argument of perigee: 270.6156°
revolutions per day: 12.26028644
mean anomaly at epoch: 76.0134°
orbit number at epoch: 85834

The dashed part of the orbit path shows where the satellite is in the earth's shadow,  

DLR